TimeEDT,TemperatureF,Dew PointF,Humidity,Sea Level PressureIn,VisibilityMPH,Wind Direction,Wind SpeedMPH,Gust SpeedMPH,PrecipitationIn,Events,Conditions,WindDirDegrees,DateUTC
12:56 AM,53.1,50.0,89,30.16,8.0,Calm,Calm,-,N/A,,Mostly Cloudy,0,2013-04-17 04:56:00
1:26 AM,51.8,48.2,88,30.17,10.0,North,4.6,-,N/A,,Mostly Cloudy,350,2013-04-17 05:26:00
1:51 AM,51.8,46.4,82,30.17,10.0,North,5.8,-,N/A,,Scattered Clouds,350,2013-04-17 05:51:00
1:56 AM,51.1,46.0,83,30.17,10.0,North,5.8,-,N/A,,Partly Cloudy,360,2013-04-17 05:56:00
2:56 AM,48.9,43.0,80,30.16,10.0,NNE,5.8,-,N/A,,Partly Cloudy,20,2013-04-17 06:56:00
3:56 AM,48.0,41.0,77,30.17,10.0,North,4.6,-,N/A,,Overcast,10,2013-04-17 07:56:00
4:56 AM,48.9,42.1,77,30.18,10.0,NNE,5.8,-,N/A,,Overcast,20,2013-04-17 08:56:00
5:56 AM,48.0,42.1,80,30.21,10.0,North,8.1,-,N/A,,Overcast,10,2013-04-17 09:56:00
6:56 AM,48.0,39.9,74,30.21,10.0,ENE,4.6,-,N/A,,Overcast,60,2013-04-17 10:56:00
7:56 AM,48.9,41.0,74,30.25,10.0,NNE,10.4,-,N/A,,Scattered Clouds,30,2013-04-17 11:56:00
8:56 AM,50.0,39.9,68,30.26,10.0,NE,6.9,-,N/A,,Mostly Cloudy,40,2013-04-17 12:56:00
9:56 AM,54.0,39.0,57,30.26,10.0,NE,6.9,-,N/A,,Overcast,40,2013-04-17 13:56:00
10:56 AM,57.0,37.9,49,30.25,10.0,Calm,Calm,-,N/A,,Partly Cloudy,0,2013-04-17 14:56:00
11:56 AM,59.0,37.0,44,30.25,10.0,West,3.5,-,N/A,,Clear,260,2013-04-17 15:56:00
12:56 PM,63.0,34.0,34,30.23,10.0,North,4.6,-,N/A,,Clear,350,2013-04-17 16:56:00
1:56 PM,64.9,30.9,28,30.21,10.0,Calm,Calm,-,N/A,,Clear,0,2013-04-17 17:56:00
2:56 PM,66.9,28.9,24,30.21,10.0,Calm,Calm,-,N/A,,Clear,0,2013-04-17 18:56:00
3:56 PM,68.0,30.0,24,30.18,10.0,Variable,6.9,-,N/A,,Clear,0,2013-04-17 19:56:00
4:56 PM,70.0,33.1,26,30.17,10.0,Calm,Calm,-,N/A,,Clear,0,2013-04-17 20:56:00
5:56 PM,70.0,32.0,25,30.17,10.0,Calm,Calm,-,N/A,,Clear,0,2013-04-17 21:56:00
6:56 PM,68.0,34.0,28,30.16,10.0,Calm,Calm,-,N/A,,Clear,0,2013-04-17 22:56:00
7:56 PM,66.0,35.1,32,30.16,10.0,Calm,Calm,-,N/A,,Clear,0,2013-04-17 23:56:00
8:56 PM,63.0,36.0,37,30.16,10.0,SE,3.5,-,N/A,,Clear,130,2013-04-18 00:56:00
9:56 PM,61.0,42.1,50,30.19,10.0,SE,8.1,-,N/A,,Clear,130,2013-04-18 01:56:00
10:56 PM,61.0,37.0,41,30.16,10.0,SE,10.4,-,N/A,,Overcast,130,2013-04-18 02:56:00
11:56 PM,59.0,37.0,44,30.15,10.0,ESE,12.7,-,N/A,,Partly Cloudy,120,2013-04-18 03:56:00